Погода на Родосе

Греция     36°26′45″N   28°14′11″E
темп.,
°C
ветер,
м/с
пор.,
м/с
влажн.,
%
обл.,
%
осадки,
мм/ч
давл.,
гПа
погр.,
м
16 мая, вс
вс1600:00+20з456942 0.0 1010237
03:00+20зсз67710 0.0 1009418
06:00+20зсз67700 0.0 1008406
09:00+20зсз666756 0.0 1009458
12:00+20з8877100 0.0 1009410
15:00+19зсз99770 0.0 1009395
18:00+20з1010765 0.0 1009479
21:00+20зсз910778 0.0 1009725
17 мая, пн
пн1700:00+20зсз9117252 0.0 1010741
03:00+20зсз911715 0.0 1009604
06:00+19зсз910715 0.0 1009490
09:00+20сз78675 0.0 1011393
12:00+21з810686 0.0 1012373
15:00+21з11126875 0.0 1011272
18:00+21з1113716 0.0 1011311
21:00+20з910800 0.0 1012339
18 мая, вт
вт1800:00+20з77813 0.0 1012295
03:00+19з66800 0.0 1011319
06:00+20з56790 0.0 1011335
09:00+20з45770 0.0 1013316
12:00+21з33730 0.0 1013203
15:00+22юв22655 0.0 1013316
18:00+22юз01651 0.0 1013224
21:00+21зсз33770 0.0 1013103
19 мая, ср
ср1900:00+21зсз34770 0.0 101385
03:00+21зсз44770 0.0 1012116
06:00+20зсз34770 0.0 1012112
09:00+21зсз11745 0.0 101325
12:00+22ююв22654 0.0 1013115
15:00+24ююв12600 0.0 1012108
18:00+23ю22660 0.0 101271
21:00+22зсз22680 0.0 101219
20 мая, чт
чт2000:00+21зсз33710 0.0 101242
03:00+21зсз22730 0.0 101026
06:00+20з22710 0.0 101033
09:00+21зюз11690 0.0 101113
12:00+21юз11605 0.0 1012114
15:00+23зюз226234 0.0 1011188
18:00+21зсз34645 0.0 1011110
21:00+21зсз44690 0.0 101158